Location: Bishop�s Knoyle
(51.0728°N, 2.1714°W)
Time: 13:35:23
(UTC+00:00)

NOSS 3-4 (C) - Pass Details

Date: 24 January 2021
Orbit: 878 x 1335 km, 63.4° (Epoch: 16 February)

Event Time Altitude Azimuth Distance (km) Brightness Sun altitude
Rises 22:20:18 0° 314° (NW) 3,752 7.2 -50.1°
Reaches altitude 10° 22:22:48 10° 316° (NW) 2,858 6.4 -50.3°
Enters shadow 22:23:33 14° 317° (NW) 2,593 6.1 -50.4°
